User: anonymous   Login
Location: Unspecified
(0.0000°N, 0.0000°E)
Time: 01:27:45
(UTC+00:00)
Language:

Aussat K1 - Orbit

View from above orbital plane
View from above orbital plane
View from above satellite
View from above satellite

Ground track
Ground track

The orbit data is extracted from the following two-line orbital elements,

1 15993U 85076B   17086.51528912 +.00000064 +00000-0 +00000-0 0  9998
2 15993 015.3128 008.1298 0006325 284.9810 280.7695 00.99764099085985
Epoch (UTC): 27 March 2017 12:22:00
Eccentricity: 0.0006325
inclination: 15.3128°
perigee height: 35902 km
apogee height: 35956 km
right ascension of ascending node: 8.1298°
argument of perigee: 284.9810°
revolutions per day: 0.99764099
mean anomaly at epoch: 280.7695°
orbit number at epoch: 8598

The dashed part of the orbit path shows where the satellite is in the earth's shadow,  

DLR